TimeEST,TemperatureF,Dew PointF,Humidity,Sea Level PressureIn,VisibilityMPH,Wind Direction,Wind SpeedMPH,Gust SpeedMPH,PrecipitationIn,Events,Conditions,WindDirDegrees,DateUTC
12:53 AM,5.0,3.0,92,30.19,10.0,SSW,5.8,-,N/A,,Clear,210,2013-01-08 05:53:00
1:53 AM,10.0,8.1,92,30.19,10.0,South,3.5,-,N/A,,Clear,190,2013-01-08 06:53:00
2:53 AM,7.0,5.0,92,30.18,10.0,SSW,3.5,-,N/A,,Clear,210,2013-01-08 07:53:00
3:53 AM,6.1,1.9,83,30.17,10.0,SW,5.8,-,N/A,,Clear,230,2013-01-08 08:53:00
4:53 AM,8.1,6.1,92,30.17,10.0,Calm,Calm,-,N/A,,Clear,0,2013-01-08 09:53:00
5:53 AM,10.0,8.1,92,30.19,10.0,Variable,3.5,-,N/A,,Clear,0,2013-01-08 10:53:00
6:53 AM,10.0,7.0,87,30.20,10.0,Calm,Calm,-,N/A,,Clear,0,2013-01-08 11:53:00
7:53 AM,10.9,8.1,88,30.22,10.0,Calm,Calm,-,N/A,,Clear,0,2013-01-08 12:53:00
9:53 AM,25.0,19.9,81,30.24,10.0,South,4.6,-,N/A,,Clear,190,2013-01-08 14:53:00
10:53 AM,30.0,21.9,72,30.24,10.0,SSE,5.8,-,N/A,,Clear,150,2013-01-08 15:53:00
11:53 AM,30.9,23.0,72,30.24,10.0,SE,8.1,-,0.01,,Clear,130,2013-01-08 16:53:00
12:53 PM,33.1,24.1,70,30.23,10.0,SSE,10.4,-,N/A,,Partly Cloudy,150,2013-01-08 17:53:00
1:53 PM,35.1,24.1,64,30.26,10.0,Calm,Calm,-,N/A,,Mostly Cloudy,0,2013-01-08 18:53:00
2:53 PM,37.9,26.1,62,30.28,10.0,Variable,5.8,-,N/A,,Overcast,0,2013-01-08 19:53:00
3:53 PM,37.0,26.1,65,30.30,10.0,Calm,Calm,-,N/A,,Overcast,0,2013-01-08 20:53:00
4:53 PM,36.0,26.1,67,30.31,10.0,SW,3.5,-,N/A,,Scattered Clouds,220,2013-01-08 21:53:00
5:53 PM,32.0,25.0,75,30.32,10.0,SW,3.5,-,N/A,,Clear,220,2013-01-08 22:53:00
7:53 PM,30.0,24.1,79,30.36,10.0,Calm,Calm,-,N/A,,Clear,0,2013-01-09 00:53:00
8:53 PM,23.0,21.0,92,30.36,8.0,Calm,Calm,-,N/A,,Clear,0,2013-01-09 01:53:00
9:53 PM,23.0,19.0,85,30.34,8.0,Calm,Calm,-,N/A,,Clear,0,2013-01-09 02:53:00
10:53 PM,19.0,16.0,88,30.35,8.0,Calm,Calm,-,N/A,,Clear,0,2013-01-09 03:53:00